TimeMDT,TemperatureF,Dew PointF,Humidity,Sea Level PressureIn,VisibilityMPH,Wind Direction,Wind SpeedMPH,Gust SpeedMPH,PrecipitationIn,Events,Conditions,WindDirDegrees,DateUTC
12:15 AM,75.2,51.8,44,30.03,10.0,South,4.6,-,N/A,,Scattered Clouds,190,2013-09-09 06:15:00
12:35 AM,74.8,51.4,44,30.03,10.0,SSW,4.6,-,N/A,,Scattered Clouds,210,2013-09-09 06:35:00
12:55 AM,73.9,51.3,45,30.04,10.0,SSW,4.6,-,N/A,,Clear,210,2013-09-09 06:55:00
1:15 AM,73.0,50.9,46,30.04,10.0,South,4.6,-,N/A,,Clear,170,2013-09-09 07:15:00
1:35 AM,73.0,51.1,46,30.04,10.0,SSE,5.8,-,N/A,,Clear,160,2013-09-09 07:35:00
1:55 AM,71.6,51.1,48,30.04,10.0,South,4.6,-,N/A,,Clear,180,2013-09-09 07:55:00
2:15 AM,71.4,51.3,49,30.04,10.0,South,3.5,-,N/A,,Clear,170,2013-09-09 08:15:00
2:35 AM,69.8,51.1,51,30.03,10.0,Calm,Calm,-,N/A,,Clear,0,2013-09-09 08:35:00
2:55 AM,68.9,50.7,52,30.03,10.0,South,3.5,-,N/A,,Clear,190,2013-09-09 08:55:00
3:15 AM,67.8,50.2,53,30.02,10.0,South,4.6,-,N/A,,Clear,170,2013-09-09 09:15:00
3:35 AM,68.0,50.5,54,30.02,10.0,South,4.6,-,N/A,,Clear,190,2013-09-09 09:35:00
3:55 AM,67.8,50.5,54,30.02,10.0,Calm,Calm,-,N/A,,Clear,0,2013-09-09 09:55:00
4:15 AM,67.1,50.4,55,30.02,10.0,South,4.6,-,N/A,,Clear,170,2013-09-09 10:15:00
4:35 AM,66.4,50.5,57,30.02,10.0,South,4.6,-,N/A,,Clear,180,2013-09-09 10:35:00
4:55 AM,66.7,50.9,57,30.02,10.0,SSW,5.8,-,N/A,,Clear,210,2013-09-09 10:55:00
5:15 AM,66.7,50.9,57,30.02,10.0,SSW,4.6,-,N/A,,Scattered Clouds,210,2013-09-09 11:15:00
5:35 AM,66.2,50.4,57,30.02,10.0,SSW,4.6,-,N/A,,Scattered Clouds,210,2013-09-09 11:35:00
5:55 AM,66.9,51.1,57,30.02,10.0,SSW,4.6,-,N/A,,Clear,200,2013-09-09 11:55:00
6:15 AM,65.5,50.9,59,30.03,10.0,SSW,5.8,-,N/A,,Clear,200,2013-09-09 12:15:00
6:35 AM,66.0,51.1,59,30.03,10.0,SW,6.9,-,N/A,,Clear,220,2013-09-09 12:35:00
6:55 AM,66.0,50.9,58,30.04,10.0,SW,5.8,-,N/A,,Mostly Cloudy,230,2013-09-09 12:55:00
7:15 AM,67.5,52.2,58,30.04,10.0,SSW,5.8,-,N/A,,Scattered Clouds,200,2013-09-09 13:15:00
7:35 AM,68.0,52.9,58,30.05,10.0,South,5.8,-,N/A,,Scattered Clouds,190,2013-09-09 13:35:00
7:55 AM,70.3,53.8,56,30.05,10.0,South,4.6,-,N/A,,Clear,190,2013-09-09 13:55:00
8:15 AM,71.1,54.3,55,30.05,10.0,South,6.9,-,N/A,,Clear,170,2013-09-09 14:15:00
8:35 AM,73.4,55.0,52,30.06,10.0,SSE,8.1,-,N/A,,Clear,160,2013-09-09 14:35:00
8:55 AM,73.6,55.4,53,30.06,10.0,SSE,8.1,-,N/A,,Scattered Clouds,160,2013-09-09 14:55:00
9:15 AM,73.4,55.6,54,30.06,10.0,SSE,10.4,-,N/A,,Mostly Cloudy,160,2013-09-09 15:15:00
9:35 AM,75.9,55.9,50,30.07,10.0,SSE,8.1,-,N/A,,Scattered Clouds,150,2013-09-09 15:35:00
9:55 AM,78.3,55.8,46,30.06,10.0,SSE,9.2,-,N/A,,Scattered Clouds,160,2013-09-09 15:55:00
10:15 AM,79.9,54.9,42,30.06,10.0,SE,8.1,-,N/A,,Clear,140,2013-09-09 16:15:00
10:35 AM,80.2,55.2,42,30.06,10.0,South,8.1,-,N/A,,Clear,170,2013-09-09 16:35:00
10:55 AM,81.3,54.1,39,30.05,10.0,SE,12.7,20.7,N/A,,Clear,140,2013-09-09 16:55:00
11:15 AM,83.1,53.2,36,30.05,10.0,SE,10.4,17.3,N/A,,Clear,140,2013-09-09 17:15:00
11:35 AM,84.0,52.0,33,30.05,10.0,SSE,13.8,17.3,N/A,,Clear,160,2013-09-09 17:35:00
11:55 AM,84.7,52.7,33,30.04,10.0,SE,15.0,20.7,N/A,,Clear,140,2013-09-09 17:55:00
12:15 PM,85.3,52.0,32,30.04,10.0,SSE,8.1,21.9,N/A,,Clear,160,2013-09-09 18:15:00
12:35 PM,86.7,51.6,30,30.03,10.0,SE,12.7,16.1,N/A,,Clear,140,2013-09-09 18:35:00
12:55 PM,86.7,51.3,29,30.01,10.0,SW,6.9,16.1,N/A,,Clear,220,2013-09-09 18:55:00
1:15 PM,88.0,49.8,27,30.01,10.0,SSW,10.4,16.1,N/A,,Clear,200,2013-09-09 19:15:00
1:35 PM,86.4,50.4,29,30.00,10.0,SSE,6.9,10.4,N/A,,Clear,150,2013-09-09 19:35:00
1:55 PM,88.5,49.3,26,29.99,10.0,SE,6.9,16.1,N/A,,Scattered Clouds,130,2013-09-09 19:55:00
2:15 PM,89.6,48.7,24,29.98,10.0,SSE,11.5,19.6,N/A,,Clear,160,2013-09-09 20:15:00
2:35 PM,89.1,47.3,24,29.97,10.0,SE,12.7,16.1,N/A,,Clear,130,2013-09-09 20:35:00
2:55 PM,90.3,46.2,22,29.95,10.0,SSE,16.1,21.9,N/A,,Clear,150,2013-09-09 20:55:00
3:15 PM,89.6,45.5,22,29.94,10.0,ESE,13.8,17.3,N/A,,Clear,120,2013-09-09 21:15:00
3:35 PM,90.3,45.7,21,29.93,10.0,ESE,12.7,-,N/A,,Clear,110,2013-09-09 21:35:00
3:55 PM,90.1,45.1,21,29.93,10.0,SE,13.8,21.9,N/A,,Clear,130,2013-09-09 21:55:00
4:15 PM,90.9,43.0,19,29.92,10.0,South,12.7,-,N/A,,Clear,170,2013-09-09 22:15:00
4:35 PM,91.0,43.5,19,29.91,10.0,South,12.7,-,N/A,,Scattered Clouds,170,2013-09-09 22:35:00
4:55 PM,89.6,44.1,20,29.91,10.0,SE,12.7,16.1,N/A,,Clear,140,2013-09-09 22:55:00
5:15 PM,88.7,42.8,20,29.91,10.0,SSE,12.7,19.6,N/A,,Clear,150,2013-09-09 23:15:00
5:35 PM,89.6,44.4,21,29.91,10.0,SE,12.7,-,N/A,,Clear,140,2013-09-09 23:35:00
5:55 PM,88.7,43.9,21,29.90,10.0,SSE,12.7,-,N/A,,Clear,150,2013-09-09 23:55:00
6:15 PM,87.1,43.5,22,29.90,10.0,SSE,10.4,-,N/A,,Clear,160,2013-09-10 00:15:00
6:35 PM,85.5,43.7,23,29.90,10.0,South,12.7,-,N/A,,Clear,170,2013-09-10 00:35:00
6:55 PM,84.7,46.2,26,29.91,10.0,SSE,15.0,19.6,N/A,,Clear,160,2013-09-10 00:55:00
7:15 PM,82.0,51.1,34,29.93,10.0,South,19.6,25.3,N/A,,Clear,190,2013-09-10 01:15:00
7:35 PM,81.1,51.1,35,29.94,10.0,SSW,19.6,27.6,N/A,,Clear,200,2013-09-10 01:35:00
7:55 PM,79.7,53.1,40,29.96,10.0,SSW,19.6,27.6,N/A,,Clear,200,2013-09-10 01:55:00
8:15 PM,75.6,56.3,51,29.98,10.0,SSW,21.9,28.8,N/A,,Clear,210,2013-09-10 02:15:00
8:35 PM,73.0,57.7,59,30.00,10.0,South,17.3,24.2,N/A,,Clear,170,2013-09-10 02:35:00
8:55 PM,72.5,58.1,60,30.00,10.0,SSW,20.7,-,N/A,,Clear,210,2013-09-10 02:55:00
9:15 PM,72.0,60.4,67,30.00,10.0,SSW,16.1,27.6,N/A,,Clear,210,2013-09-10 03:15:00
9:35 PM,72.9,60.4,65,30.01,10.0,SSW,15.0,20.7,N/A,,Clear,210,2013-09-10 03:35:00
9:55 PM,72.7,59.7,64,30.02,10.0,South,12.7,19.6,N/A,,Clear,190,2013-09-10 03:55:00
10:15 PM,72.9,59.0,62,30.02,10.0,South,9.2,-,N/A,,Clear,180,2013-09-10 04:15:00
10:35 PM,71.6,59.9,66,30.02,10.0,South,8.1,-,N/A,,Clear,170,2013-09-10 04:35:00
10:55 PM,73.9,55.8,53,30.02,10.0,South,9.2,18.4,N/A,,Clear,170,2013-09-10 04:55:00
11:15 PM,70.9,60.1,69,30.02,10.0,SE,10.4,-,N/A,,Clear,140,2013-09-10 05:15:00
11:35 PM,69.8,61.3,74,30.03,10.0,SSE,11.5,-,N/A,,Scattered Clouds,150,2013-09-10 05:35:00
11:55 PM,68.9,62.2,79,30.03,10.0,SE,9.2,-,N/A,,Drizzle,140,2013-09-10 05:55:00